Time,TemperatureF,DewpointF,PressureIn,WindDirection,WindDirectionDegrees,WindSpeedMPH,WindSpeedGustMPH,Humidity,HourlyPrecipIn,Conditions,Clouds,dailyrainin,SolarRadiationWatts/m^2,SoftwareType,DateUTC
2013-07-15 00:05:00,74.0,73.0,30.21,WSW,257,0.0,0.0,98,0.00,,,0.00,0,weatherlink.com 1.10,2013-07-15 04:05:00,
2013-07-15 00:21:00,73.9,73.0,30.21,WSW,257,0.0,0.0,98,0.00,,,0.00,0,weatherlink.com 1.10,2013-07-15 04:21:00,
2013-07-15 00:36:00,73.8,73.0,30.20,WSW,257,0.0,0.0,98,0.00,,,0.00,0,weatherlink.com 1.10,2013-07-15 04:36:00,
2013-07-15 00:51:00,74.2,74.0,30.20,WSW,257,0.0,1.0,98,0.00,,,0.00,0,weatherlink.com 1.10,2013-07-15 04:51:00,
2013-07-15 01:06:00,74.2,74.0,30.19,WSW,257,0.0,0.0,98,0.00,,,0.00,0,weatherlink.com 1.10,2013-07-15 05:06:00,
2013-07-15 01:21:00,74.3,74.0,30.20,WSW,257,0.0,0.0,98,0.00,,,0.00,0,weatherlink.com 1.10,2013-07-15 05:21:00,
2013-07-15 01:36:00,74.4,74.0,30.19,WSW,257,0.0,0.0,98,0.00,,,0.00,0,weatherlink.com 1.10,2013-07-15 05:36:00,
2013-07-15 01:51:00,74.3,74.0,30.19,WSW,257,0.0,0.0,98,0.00,,,0.00,0,weatherlink.com 1.10,2013-07-15 05:51:00,
2013-07-15 02:06:00,74.1,74.0,30.19,WSW,257,0.0,0.0,98,0.00,,,0.00,0,weatherlink.com 1.10,2013-07-15 06:06:00,
2013-07-15 02:21:00,74.0,73.0,30.19,WSW,257,0.0,0.0,98,0.00,,,0.00,0,weatherlink.com 1.10,2013-07-15 06:21:00,
2013-07-15 02:36:00,73.7,73.0,30.19,WSW,257,0.0,0.0,98,0.00,,,0.00,0,weatherlink.com 1.10,2013-07-15 06:36:00,
2013-07-15 02:51:00,73.4,73.0,30.18,WSW,257,0.0,0.0,98,0.00,,,0.00,0,weatherlink.com 1.10,2013-07-15 06:51:00,
2013-07-15 03:06:00,73.2,73.0,30.18,WSW,257,0.0,0.0,98,0.00,,,0.00,0,weatherlink.com 1.10,2013-07-15 07:06:00,
2013-07-15 03:21:00,72.9,72.0,30.18,WSW,257,0.0,0.0,98,0.00,,,0.00,0,weatherlink.com 1.10,2013-07-15 07:21:00,
2013-07-15 03:36:00,72.7,72.0,30.18,WSW,257,0.0,0.0,98,0.00,,,0.00,0,weatherlink.com 1.10,2013-07-15 07:36:00,
2013-07-15 03:51:00,72.7,72.0,30.19,WSW,257,0.0,0.0,98,0.00,,,0.00,0,weatherlink.com 1.10,2013-07-15 07:51:00,
2013-07-15 04:06:00,72.4,72.0,30.19,WSW,257,0.0,0.0,99,0.00,,,0.00,0,weatherlink.com 1.10,2013-07-15 08:06:00,
2013-07-15 04:21:00,72.2,72.0,30.19,WSW,257,0.0,0.0,98,0.00,,,0.00,0,weatherlink.com 1.10,2013-07-15 08:21:00,
2013-07-15 04:36:00,72.0,72.0,30.18,WSW,257,0.0,0.0,99,0.00,,,0.00,0,weatherlink.com 1.10,2013-07-15 08:36:00,
2013-07-15 04:51:00,71.8,72.0,30.18,WSW,257,0.0,0.0,99,0.00,,,0.00,0,weatherlink.com 1.10,2013-07-15 08:51:00,
2013-07-15 05:06:00,71.6,71.0,30.18,WSW,257,0.0,0.0,99,0.00,,,0.00,0,weatherlink.com 1.10,2013-07-15 09:06:00,
2013-07-15 05:21:00,71.3,71.0,30.18,WSW,257,0.0,0.0,99,0.00,,,0.00,0,weatherlink.com 1.10,2013-07-15 09:21:00,
2013-07-15 05:36:00,71.3,71.0,30.18,WSW,257,0.0,0.0,99,0.00,,,0.00,5,weatherlink.com 1.10,2013-07-15 09:36:00,
2013-07-15 05:51:00,71.2,71.0,30.18,WSW,257,0.0,0.0,99,0.00,,,0.00,9,weatherlink.com 1.10,2013-07-15 09:51:00,
2013-07-15 06:06:00,71.3,71.0,30.19,WSW,257,0.0,0.0,99,0.00,,,0.00,18,weatherlink.com 1.10,2013-07-15 10:06:00,
2013-07-15 06:21:00,71.5,71.0,30.19,WSW,257,0.0,0.0,99,0.00,,,0.00,46,weatherlink.com 1.10,2013-07-15 10:21:00,
2013-07-15 06:37:00,71.9,72.0,30.19,WSW,257,0.0,0.0,99,0.00,,,0.00,79,weatherlink.com 1.10,2013-07-15 10:37:00,
2013-07-15 06:52:00,72.7,72.0,30.19,WSW,257,0.0,0.0,99,0.00,,,0.00,54,weatherlink.com 1.10,2013-07-15 10:52:00,
2013-07-15 07:06:00,73.6,73.0,30.19,WSW,257,0.0,0.0,99,0.00,,,0.00,111,weatherlink.com 1.10,2013-07-15 11:06:00,
2013-07-15 07:22:00,75.0,75.0,30.19,WSW,257,0.0,0.0,99,0.00,,,0.00,107,weatherlink.com 1.10,2013-07-15 11:22:00,
2013-07-15 07:37:00,75.6,75.0,30.19,WSW,257,0.0,1.0,99,0.00,,,0.00,121,weatherlink.com 1.10,2013-07-15 11:37:00,
2013-07-15 07:52:00,76.9,77.0,30.19,WSW,257,0.0,0.0,99,0.00,,,0.00,155,weatherlink.com 1.10,2013-07-15 11:52:00,
2013-07-15 08:08:00,77.6,77.0,30.19,WSW,257,0.0,0.0,98,0.00,,,0.00,149,weatherlink.com 1.10,2013-07-15 12:08:00,
2013-07-15 08:22:00,78.9,78.0,30.19,WSW,257,0.0,0.0,98,0.00,,,0.00,83,weatherlink.com 1.10,2013-07-15 12:22:00,
2013-07-15 08:38:00,79.7,78.0,30.19,WSW,257,0.0,1.0,95,0.00,,,0.00,79,weatherlink.com 1.10,2013-07-15 12:38:00,
2013-07-15 08:53:00,81.4,78.0,30.19,WSW,257,0.0,1.0,88,0.00,,,0.00,123,weatherlink.com 1.10,2013-07-15 12:53:00,
2013-07-15 09:08:00,82.4,77.0,30.19,West,263,2.0,3.0,84,0.00,,,0.00,540,weatherlink.com 1.10,2013-07-15 13:08:00,
2013-07-15 09:25:00,83.6,77.0,30.18,West,281,1.0,4.0,79,0.00,,,0.00,591,weatherlink.com 1.10,2013-07-15 13:25:00,
2013-07-15 09:38:00,83.9,77.0,30.18,NNW,335,1.0,4.0,79,0.01,,,0.01,631,weatherlink.com 1.10,2013-07-15 13:38:00,
2013-07-15 09:55:00,84.5,76.0,30.18,West,273,0.0,6.0,75,0.01,,,0.01,677,weatherlink.com 1.10,2013-07-15 13:55:00,
2013-07-15 10:09:00,85.2,77.0,30.17,NNW,334,1.0,6.0,75,0.01,,,0.01,712,weatherlink.com 1.10,2013-07-15 14:09:00,
2013-07-15 10:25:00,85.5,75.0,30.17,North,350,0.0,8.0,71,0.00,,,0.01,756,weatherlink.com 1.10,2013-07-15 14:25:00,
2013-07-15 10:40:00,85.6,75.0,30.17,North,360,0.0,8.0,71,0.00,,,0.01,798,weatherlink.com 1.10,2013-07-15 14:40:00,
2013-07-15 10:55:00,86.5,76.0,30.16,NNW,338,3.0,5.0,70,0.00,,,0.01,819,weatherlink.com 1.10,2013-07-15 14:55:00,
2013-07-15 11:55:00,88.7,75.0,30.16,NNE,23,4.0,7.0,64,0.00,,,0.01,928,weatherlink.com 1.10,2013-07-15 15:55:00,
2013-07-15 12:25:00,88.2,74.0,30.15,NNW,346,1.0,11.0,62,0.00,,,0.01,974,weatherlink.com 1.10,2013-07-15 16:25:00,
2013-07-15 12:41:00,88.3,74.0,30.15,NNW,330,2.0,13.0,62,0.00,,,0.01,939,weatherlink.com 1.10,2013-07-15 16:41:00,
2013-07-15 12:56:00,88.5,73.0,30.15,WNW,300,1.0,11.0,60,0.00,,,0.01,933,weatherlink.com 1.10,2013-07-15 16:56:00,
2013-07-15 13:11:00,89.0,73.0,30.15,NNW,335,5.0,6.0,60,0.00,,,0.01,954,weatherlink.com 1.10,2013-07-15 17:11:00,
2013-07-15 13:25:00,88.5,73.0,30.15,NNW,338,4.0,9.0,61,0.00,,,0.01,925,weatherlink.com 1.10,2013-07-15 17:25:00,
2013-07-15 13:41:00,88.8,74.0,30.14,West,261,7.0,7.0,62,0.00,,,0.01,970,weatherlink.com 1.10,2013-07-15 17:41:00,
2013-07-15 13:57:00,88.9,73.0,30.14,WNW,288,2.0,6.0,59,0.00,,,0.01,951,weatherlink.com 1.10,2013-07-15 17:57:00,
2013-07-15 14:12:00,89.9,74.0,30.13,NNW,332,0.0,8.0,59,0.00,,,0.01,946,weatherlink.com 1.10,2013-07-15 18:12:00,
2013-07-15 14:26:00,89.8,73.0,30.13,North,360,2.0,7.0,58,0.00,,,0.01,884,weatherlink.com 1.10,2013-07-15 18:26:00,
2013-07-15 14:42:00,89.3,74.0,30.13,WNW,288,0.0,6.0,60,0.00,,,0.01,900,weatherlink.com 1.10,2013-07-15 18:42:00,
2013-07-15 14:57:00,89.5,74.0,30.12,North,5,0.0,7.0,61,0.00,,,0.01,858,weatherlink.com 1.10,2013-07-15 18:57:00,
2013-07-15 15:12:00,90.2,73.0,30.12,WNW,289,2.0,9.0,58,0.00,,,0.01,842,weatherlink.com 1.10,2013-07-15 19:12:00,
2013-07-15 15:27:00,89.7,74.0,30.12,NNW,330,0.0,6.0,61,0.00,,,0.01,800,weatherlink.com 1.10,2013-07-15 19:27:00,
2013-07-15 15:42:00,89.7,74.0,30.12,North,350,0.0,7.0,60,0.00,,,0.01,802,weatherlink.com 1.10,2013-07-15 19:42:00,
2013-07-15 15:57:00,89.7,74.0,30.11,North,349,0.0,4.0,60,0.00,,,0.01,735,weatherlink.com 1.10,2013-07-15 19:57:00,
2013-07-15 16:12:00,89.7,74.0,30.11,NNE,14,5.0,5.0,61,0.00,,,0.01,726,weatherlink.com 1.10,2013-07-15 20:12:00,
2013-07-15 16:27:00,89.6,75.0,30.11,West,277,0.0,6.0,62,0.00,,,0.01,645,weatherlink.com 1.10,2013-07-15 20:27:00,
2013-07-15 16:43:00,89.7,74.0,30.11,North,355,0.0,5.0,61,0.00,,,0.01,612,weatherlink.com 1.10,2013-07-15 20:43:00,
2013-07-15 16:57:00,89.3,74.0,30.11,North,355,0.0,5.0,61,0.00,,,0.01,564,weatherlink.com 1.10,2013-07-15 20:57:00,
2013-07-15 17:43:00,88.3,76.0,30.10,North,350,0.0,1.0,66,0.00,,,0.01,271,weatherlink.com 1.10,2013-07-15 21:43:00,
2013-07-15 18:15:00,86.2,77.0,30.10,North,350,0.0,1.0,74,0.00,,,0.01,216,weatherlink.com 1.10,2013-07-15 22:15:00,
2013-07-15 18:28:00,85.9,78.0,30.10,North,350,0.0,0.0,77,0.00,,,0.01,95,weatherlink.com 1.10,2013-07-15 22:28:00,
2013-07-15 18:45:00,84.7,79.0,30.10,NNW,331,0.0,0.0,82,0.00,,,0.01,28,weatherlink.com 1.10,2013-07-15 22:45:00,
2013-07-15 18:58:00,83.3,78.0,30.10,NNW,331,0.0,1.0,85,0.00,,,0.01,26,weatherlink.com 1.10,2013-07-15 22:58:00,
2013-07-15 19:14:00,83.0,79.0,30.10,NW,306,0.0,2.0,87,0.00,,,0.01,25,weatherlink.com 1.10,2013-07-15 23:14:00,
2013-07-15 19:30:00,82.5,79.0,30.10,NW,306,0.0,0.0,88,0.00,,,0.01,12,weatherlink.com 1.10,2013-07-15 23:30:00,
2013-07-15 19:45:00,81.6,78.0,30.10,NW,306,0.0,1.0,89,0.00,,,0.01,9,weatherlink.com 1.10,2013-07-15 23:45:00,
2013-07-15 19:59:00,80.9,78.0,30.10,NW,306,0.0,0.0,89,0.00,,,0.01,9,weatherlink.com 1.10,2013-07-15 23:59:00,
2013-07-15 20:15:00,80.0,77.0,30.10,NW,306,0.0,0.0,90,0.00,,,0.01,5,weatherlink.com 1.10,2013-07-16 00:15:00,
2013-07-15 20:29:00,79.6,77.0,30.10,NW,306,0.0,0.0,90,0.00,,,0.01,0,weatherlink.com 1.10,2013-07-16 00:29:00,
2013-07-15 20:45:00,79.0,77.0,30.10,WNW,298,0.0,2.0,92,0.00,,,0.01,0,weatherlink.com 1.10,2013-07-16 00:45:00,
2013-07-15 20:59:00,78.2,76.0,30.11,WNW,298,0.0,1.0,93,0.00,,,0.01,0,weatherlink.com 1.10,2013-07-16 00:59:00,
2013-07-15 21:15:00,77.8,76.0,30.11,WNW,298,0.0,0.0,94,0.00,,,0.01,0,weatherlink.com 1.10,2013-07-16 01:15:00,
2013-07-15 21:30:00,77.4,76.0,30.12,WNW,298,0.0,0.0,94,0.00,,,0.01,0,weatherlink.com 1.10,2013-07-16 01:30:00,
2013-07-15 21:46:00,77.1,76.0,30.12,WNW,298,0.0,0.0,95,0.00,,,0.01,0,weatherlink.com 1.10,2013-07-16 01:46:00,
2013-07-15 22:01:00,76.8,75.0,30.12,WNW,298,0.0,0.0,95,0.00,,,0.01,0,weatherlink.com 1.10,2013-07-16 02:01:00,
2013-07-15 22:16:00,76.6,75.0,30.11,WNW,298,0.0,0.0,96,0.00,,,0.01,0,weatherlink.com 1.10,2013-07-16 02:16:00,
2013-07-15 22:31:00,76.4,75.0,30.11,WNW,298,0.0,0.0,96,0.00,,,0.01,0,weatherlink.com 1.10,2013-07-16 02:31:00,
2013-07-15 23:01:00,76.0,75.0,30.12,WNW,298,0.0,0.0,95,0.00,,,0.01,0,weatherlink.com 1.10,2013-07-16 03:01:00,
2013-07-15 23:16:00,76.1,74.0,30.12,WNW,298,0.0,0.0,94,0.00,,,0.01,0,weatherlink.com 1.10,2013-07-16 03:16:00,
2013-07-15 23:31:00,75.7,74.0,30.12,WNW,298,0.0,0.0,94,0.00,,,0.01,0,weatherlink.com 1.10,2013-07-16 03:31:00,
2013-07-15 23:47:00,75.3,74.0,30.12,WNW,298,0.0,1.0,95,0.00,,,0.01,0,weatherlink.com 1.10,2013-07-16 03:47:00,